Year,Month,Day,Hour,Minute,Value (Times are PST for windspeed in km/hr)
2019,05,16,00,00,0.00
2019,05,16,00,01,0.00
2019,05,16,00,02,0.00
2019,05,16,00,03,0.00
2019,05,16,00,04,0.00
2019,05,16,00,05,0.00
2019,05,16,00,06,0.20
2019,05,16,00,07,2.00
2019,05,16,00,08,0.00
2019,05,16,00,09,0.00
2019,05,16,00,10,0.00
2019,05,16,00,11,0.10
2019,05,16,00,12,0.00
2019,05,16,00,13,0.00
2019,05,16,00,14,0.00
2019,05,16,00,15,0.00
2019,05,16,00,16,0.00
2019,05,16,00,17,0.10
2019,05,16,00,18,0.00
2019,05,16,00,19,0.10
2019,05,16,00,20,0.00
2019,05,16,00,21,0.00
2019,05,16,00,22,3.00
2019,05,16,00,23,1.50
2019,05,16,00,24,3.50
2019,05,16,00,25,9.50
2019,05,16,00,26,2.90
2019,05,16,00,27,2.00
2019,05,16,00,28,5.60
2019,05,16,00,29,0.00
2019,05,16,00,30,0.00
2019,05,16,00,31,0.00
2019,05,16,00,32,0.00
2019,05,16,00,33,0.00
2019,05,16,00,34,0.10
2019,05,16,00,35,4.70
2019,05,16,00,36,7.50
2019,05,16,00,37,0.00
2019,05,16,00,38,0.10
2019,05,16,00,39,0.00
2019,05,16,00,40,0.10
2019,05,16,00,41,0.00
2019,05,16,00,42,0.00
2019,05,16,00,43,2.40
2019,05,16,00,44,0.00
2019,05,16,00,45,0.00
2019,05,16,00,46,0.10
2019,05,16,00,47,0.10
2019,05,16,00,48,0.00
2019,05,16,00,49,0.10
2019,05,16,00,50,8.40
2019,05,16,00,51,5.00
2019,05,16,00,52,0.00
2019,05,16,00,53,6.90
2019,05,16,00,54,0.00
2019,05,16,00,55,1.20
2019,05,16,00,56,0.00
2019,05,16,00,57,3.30
2019,05,16,00,58,0.60
2019,05,16,00,59,0.00
2019,05,16,01,00,0.00
2019,05,16,01,01,0.00
2019,05,16,01,02,0.00
2019,05,16,01,03,0.00
2019,05,16,01,04,2.70
2019,05,16,01,05,0.00
2019,05,16,01,06,0.00
2019,05,16,01,07,0.00
2019,05,16,01,08,2.70
2019,05,16,01,09,1.60
2019,05,16,01,10,0.90
2019,05,16,01,11,0.60
2019,05,16,01,12,0.00
2019,05,16,01,13,0.00
2019,05,16,01,14,0.00
2019,05,16,01,15,0.00
2019,05,16,01,16,0.00
2019,05,16,01,17,0.00
2019,05,16,01,18,0.00
2019,05,16,01,19,0.00
2019,05,16,01,20,2.00
2019,05,16,01,21,4.40
2019,05,16,01,22,6.50
2019,05,16,01,23,0.00
2019,05,16,01,24,0.10
2019,05,16,01,25,6.50
2019,05,16,01,26,5.80
2019,05,16,01,27,0.30
2019,05,16,01,28,2.80
2019,05,16,01,29,2.40
2019,05,16,01,30,4.00
2019,05,16,01,31,0.00
2019,05,16,01,32,3.60
2019,05,16,01,33,0.00
2019,05,16,01,34,0.20
2019,05,16,01,35,0.00
2019,05,16,01,36,2.90
2019,05,16,01,37,1.50
2019,05,16,01,38,0.00
2019,05,16,01,39,0.00
2019,05,16,01,40,0.00
2019,05,16,01,41,0.00
2019,05,16,01,42,0.00
2019,05,16,01,43,0.00
2019,05,16,01,44,0.00
2019,05,16,01,45,0.00
2019,05,16,01,46,0.00
2019,05,16,01,47,0.00
2019,05,16,01,48,0.00
2019,05,16,01,49,0.00
2019,05,16,01,50,0.00
2019,05,16,01,51,0.00
2019,05,16,01,52,0.00
2019,05,16,01,53,0.10
2019,05,16,01,54,0.00
2019,05,16,01,55,0.00
2019,05,16,01,56,0.00
2019,05,16,01,57,0.10
2019,05,16,01,58,0.10
2019,05,16,01,59,0.00
2019,05,16,02,00,0.00
2019,05,16,02,01,0.00
2019,05,16,02,02,0.00
2019,05,16,02,03,0.00
2019,05,16,02,04,0.00
2019,05,16,02,05,0.00
2019,05,16,02,06,0.00
2019,05,16,02,07,0.00
2019,05,16,02,08,0.00
2019,05,16,02,09,0.00
2019,05,16,02,10,0.00
2019,05,16,02,11,0.10
2019,05,16,02,12,0.00
2019,05,16,02,13,0.00
2019,05,16,02,14,0.00
2019,05,16,02,15,0.00
2019,05,16,02,16,0.00
2019,05,16,02,17,0.00
2019,05,16,02,18,0.00
2019,05,16,02,19,0.00
2019,05,16,02,20,0.00
2019,05,16,02,21,0.00
2019,05,16,02,22,0.00
2019,05,16,02,23,0.00
2019,05,16,02,24,0.00
2019,05,16,02,25,0.00
2019,05,16,02,26,0.00
2019,05,16,02,27,0.70
2019,05,16,02,28,0.10
2019,05,16,02,29,0.00
2019,05,16,02,30,0.00
2019,05,16,02,31,0.00
2019,05,16,02,32,0.10
2019,05,16,02,33,0.00
2019,05,16,02,34,0.00
2019,05,16,02,35,0.10
2019,05,16,02,36,0.00
2019,05,16,02,37,0.00
2019,05,16,02,38,0.00
2019,05,16,02,39,0.00
2019,05,16,02,40,0.00
2019,05,16,02,41,0.00
2019,05,16,02,42,0.00
2019,05,16,02,43,0.00
2019,05,16,02,44,0.00
2019,05,16,02,45,0.00
2019,05,16,02,46,0.00
2019,05,16,02,47,0.00
2019,05,16,02,48,0.00
2019,05,16,02,49,0.00
2019,05,16,02,50,0.00
2019,05,16,02,51,0.00
2019,05,16,02,52,0.00
2019,05,16,02,53,0.00
2019,05,16,02,54,0.00
2019,05,16,02,55,0.00
2019,05,16,02,56,0.00
2019,05,16,02,57,0.10
2019,05,16,02,58,0.00
2019,05,16,02,59,0.00
2019,05,16,03,00,0.00
2019,05,16,03,01,0.00
2019,05,16,03,02,0.00
2019,05,16,03,03,0.00
2019,05,16,03,04,0.00
2019,05,16,03,05,0.00
2019,05,16,03,06,0.10
2019,05,16,03,07,0.00
2019,05,16,03,08,0.00
2019,05,16,03,09,0.20
2019,05,16,03,10,0.00
2019,05,16,03,11,0.00
2019,05,16,03,12,0.00
2019,05,16,03,13,0.00
2019,05,16,03,14,0.00
2019,05,16,03,15,0.00
2019,05,16,03,16,0.00
2019,05,16,03,17,0.00
2019,05,16,03,18,0.00
2019,05,16,03,19,0.00
2019,05,16,03,20,0.00
2019,05,16,03,21,0.00
2019,05,16,03,22,0.00
2019,05,16,03,23,0.00
2019,05,16,03,24,0.10
2019,05,16,03,25,0.00
2019,05,16,03,26,0.00
2019,05,16,03,27,0.00
2019,05,16,03,28,1.20
2019,05,16,03,29,2.10
2019,05,16,03,30,0.00
2019,05,16,03,31,0.00
2019,05,16,03,32,0.00
2019,05,16,03,33,5.30
2019,05,16,03,34,5.50
2019,05,16,03,35,6.90
2019,05,16,03,36,2.50
2019,05,16,03,37,0.00
2019,05,16,03,38,0.00
2019,05,16,03,39,0.70
2019,05,16,03,40,4.60
2019,05,16,03,41,0.10
2019,05,16,03,42,0.00
2019,05,16,03,43,0.00
2019,05,16,03,44,0.00
2019,05,16,03,45,0.10
2019,05,16,03,46,0.00
2019,05,16,03,47,0.00
2019,05,16,03,48,0.00
2019,05,16,03,49,0.00
2019,05,16,03,50,0.00
2019,05,16,03,51,0.00
2019,05,16,03,52,0.00
2019,05,16,03,53,0.00
2019,05,16,03,54,0.00
2019,05,16,03,55,0.00
2019,05,16,03,56,0.20
2019,05,16,03,57,3.50
2019,05,16,03,58,1.10
2019,05,16,03,59,0.00
2019,05,16,04,00,0.00
2019,05,16,04,01,0.00
2019,05,16,04,02,0.00
2019,05,16,04,03,0.00
2019,05,16,04,04,0.00
2019,05,16,04,05,0.00
2019,05,16,04,06,0.10
2019,05,16,04,07,0.10
2019,05,16,04,08,0.00
2019,05,16,04,09,0.10
2019,05,16,04,10,0.00
2019,05,16,04,11,0.00
2019,05,16,04,12,0.20
2019,05,16,04,13,0.00
2019,05,16,04,14,0.10
2019,05,16,04,15,0.00
2019,05,16,04,16,0.10
2019,05,16,04,17,0.10
2019,05,16,04,18,0.00
2019,05,16,04,19,0.00
2019,05,16,04,20,1.30
2019,05,16,04,21,5.40
2019,05,16,04,22,0.90
2019,05,16,04,23,7.10
2019,05,16,04,24,2.50
2019,05,16,04,25,3.80
2019,05,16,04,26,4.20
2019,05,16,04,27,0.00
2019,05,16,04,28,0.00
2019,05,16,04,29,2.10
2019,05,16,04,30,0.00
2019,05,16,04,31,0.00
2019,05,16,04,32,0.00
2019,05,16,04,33,0.00
2019,05,16,04,34,0.00
2019,05,16,04,35,0.00
2019,05,16,04,36,0.00
2019,05,16,04,37,0.00
2019,05,16,04,38,0.00
2019,05,16,04,39,0.30
2019,05,16,04,40,0.00
2019,05,16,04,41,0.00
2019,05,16,04,42,0.00
2019,05,16,04,43,0.10
2019,05,16,04,44,0.00
2019,05,16,04,45,0.00
2019,05,16,04,46,0.00
2019,05,16,04,47,0.00
2019,05,16,04,48,0.00
2019,05,16,04,49,0.00
2019,05,16,04,50,0.00
2019,05,16,04,51,0.00
2019,05,16,04,52,0.00
2019,05,16,04,53,0.00
2019,05,16,04,54,0.00
2019,05,16,04,55,0.00
2019,05,16,04,56,0.00
2019,05,16,04,57,0.00
2019,05,16,04,58,0.00
2019,05,16,04,59,0.20
2019,05,16,05,00,0.00
2019,05,16,05,01,0.00
2019,05,16,05,02,0.00
2019,05,16,05,03,0.10
2019,05,16,05,04,0.00
2019,05,16,05,05,0.00
2019,05,16,05,06,0.00
2019,05,16,05,07,0.00
2019,05,16,05,08,0.00
2019,05,16,05,09,0.00
2019,05,16,05,10,0.00
2019,05,16,05,11,0.00
2019,05,16,05,12,0.00
2019,05,16,05,13,0.00
2019,05,16,05,14,0.00
2019,05,16,05,15,0.00
2019,05,16,05,16,0.00
2019,05,16,05,17,0.00
2019,05,16,05,18,0.00
2019,05,16,05,19,0.00
2019,05,16,05,20,0.00
2019,05,16,05,21,0.00
2019,05,16,05,22,0.00
2019,05,16,05,23,0.00
2019,05,16,05,24,0.00
2019,05,16,05,25,0.00
2019,05,16,05,26,0.00
2019,05,16,05,27,0.00
2019,05,16,05,28,0.00
2019,05,16,05,29,0.00
2019,05,16,05,30,0.00
2019,05,16,05,31,0.00
2019,05,16,05,32,0.00
2019,05,16,05,33,0.00
2019,05,16,05,34,0.00
2019,05,16,05,35,0.00
2019,05,16,05,36,0.00
2019,05,16,05,37,0.00
2019,05,16,05,38,0.00
2019,05,16,05,39,0.00
2019,05,16,05,40,0.00
2019,05,16,05,41,0.00
2019,05,16,05,42,0.00
2019,05,16,05,43,0.00
2019,05,16,05,44,0.00
2019,05,16,05,45,0.00
2019,05,16,05,46,0.00
2019,05,16,05,47,0.00
2019,05,16,05,48,0.00
2019,05,16,05,49,0.00
2019,05,16,05,50,0.00
2019,05,16,05,51,0.00
2019,05,16,05,52,0.00
2019,05,16,05,53,0.00
2019,05,16,05,54,0.00
2019,05,16,05,55,0.00
2019,05,16,05,56,0.00
2019,05,16,05,57,0.00
2019,05,16,05,58,0.00
2019,05,16,05,59,0.00
2019,05,16,06,00,0.00
2019,05,16,06,01,0.00
2019,05,16,06,02,0.00
2019,05,16,06,03,0.00
2019,05,16,06,04,0.00
2019,05,16,06,05,0.00
2019,05,16,06,06,0.00
2019,05,16,06,07,0.00
2019,05,16,06,08,0.00
2019,05,16,06,09,0.00
2019,05,16,06,10,0.00
2019,05,16,06,11,0.00
2019,05,16,06,12,0.00
2019,05,16,06,13,0.00
2019,05,16,06,14,0.00
2019,05,16,06,15,0.00
2019,05,16,06,16,0.00
2019,05,16,06,17,0.00
2019,05,16,06,18,0.00
2019,05,16,06,19,0.00
2019,05,16,06,20,0.00
2019,05,16,06,21,0.00
2019,05,16,06,22,0.00
2019,05,16,06,23,0.00
2019,05,16,06,24,0.00
2019,05,16,06,25,0.00
2019,05,16,06,26,0.00
2019,05,16,06,27,0.00
2019,05,16,06,28,0.00
2019,05,16,06,29,0.00
2019,05,16,06,30,0.00
2019,05,16,06,31,0.00
2019,05,16,06,32,0.00
2019,05,16,06,33,0.00
2019,05,16,06,34,0.00
2019,05,16,06,35,0.00
2019,05,16,06,36,0.00
2019,05,16,06,37,0.00
2019,05,16,06,38,0.00
2019,05,16,06,39,0.00
2019,05,16,06,40,0.10
2019,05,16,06,41,0.00
2019,05,16,06,42,0.00
2019,05,16,06,43,0.00
2019,05,16,06,44,0.00
2019,05,16,06,45,0.00
2019,05,16,06,46,0.00
2019,05,16,06,47,0.00
2019,05,16,06,48,0.00
2019,05,16,06,49,0.00
2019,05,16,06,50,0.00
2019,05,16,06,51,0.00
2019,05,16,06,52,0.00
2019,05,16,06,53,0.00
2019,05,16,06,54,0.00
2019,05,16,06,55,0.00
2019,05,16,06,56,0.00
2019,05,16,06,57,0.00
2019,05,16,06,58,0.00
2019,05,16,06,59,0.00
2019,05,16,07,00,0.00
2019,05,16,07,01,0.00
2019,05,16,07,02,0.00
2019,05,16,07,03,0.00
2019,05,16,07,04,0.00
2019,05,16,07,05,0.00
2019,05,16,07,06,0.00
2019,05,16,07,07,0.00
2019,05,16,07,08,0.00
2019,05,16,07,09,0.00
2019,05,16,07,10,0.00
2019,05,16,07,11,0.00
2019,05,16,07,12,0.00
2019,05,16,07,13,0.00
2019,05,16,07,14,0.00
2019,05,16,07,15,0.00
2019,05,16,07,16,0.10
2019,05,16,07,17,2.50
2019,05,16,07,18,0.80
2019,05,16,07,19,0.30
2019,05,16,07,20,0.20
2019,05,16,07,21,0.00
2019,05,16,07,22,0.00
2019,05,16,07,23,1.00
2019,05,16,07,24,0.30
2019,05,16,07,25,0.00
2019,05,16,07,26,0.00
2019,05,16,07,27,0.10
2019,05,16,07,28,1.80
2019,05,16,07,29,11.00
2019,05,16,07,30,9.10
2019,05,16,07,31,0.00
2019,05,16,07,32,0.00
2019,05,16,07,33,0.00
2019,05,16,07,34,0.10
2019,05,16,07,35,1.30
2019,05,16,07,36,2.20
2019,05,16,07,37,4.80
2019,05,16,07,38,0.00
2019,05,16,07,39,5.00
2019,05,16,07,40,6.70
2019,05,16,07,41,3.40
2019,05,16,07,42,3.50
2019,05,16,07,43,0.10
2019,05,16,07,44,0.00
2019,05,16,07,45,0.10
2019,05,16,07,46,6.40
2019,05,16,07,47,0.00
2019,05,16,07,48,0.00
2019,05,16,07,49,0.00
2019,05,16,07,50,0.70
2019,05,16,07,51,8.00
2019,05,16,07,52,1.50
2019,05,16,07,53,11.70
2019,05,16,07,54,0.20
2019,05,16,07,55,0.00
2019,05,16,07,56,6.40
2019,05,16,07,57,5.00
2019,05,16,07,58,6.70
2019,05,16,07,59,0.00
2019,05,16,08,00,0.00
2019,05,16,08,01,0.00
2019,05,16,08,02,1.10
2019,05,16,08,03,11.60
2019,05,16,08,04,0.40
2019,05,16,08,05,5.70
2019,05,16,08,06,12.70
2019,05,16,08,07,0.20
2019,05,16,08,08,4.60
2019,05,16,08,09,4.40
2019,05,16,08,10,0.10
2019,05,16,08,11,8.50
2019,05,16,08,12,3.10
2019,05,16,08,13,2.80
2019,05,16,08,14,1.90
2019,05,16,08,15,10.40
2019,05,16,08,16,8.10
2019,05,16,08,17,16.60
2019,05,16,08,18,15.30
2019,05,16,08,19,13.80
2019,05,16,08,20,4.10
2019,05,16,08,21,11.90
2019,05,16,08,22,19.10
2019,05,16,08,23,17.90
2019,05,16,08,24,5.00
2019,05,16,08,25,9.10
2019,05,16,08,26,2.80
2019,05,16,08,27,5.90
2019,05,16,08,28,0.30
2019,05,16,08,29,0.00
2019,05,16,08,30,0.00
2019,05,16,08,31,0.20
2019,05,16,08,32,3.10
2019,05,16,08,33,2.50
2019,05,16,08,34,0.20
2019,05,16,08,35,10.90
2019,05,16,08,36,8.00
2019,05,16,08,37,2.80
2019,05,16,08,38,0.20
2019,05,16,08,39,2.00
2019,05,16,08,40,13.20
2019,05,16,08,41,2.40
2019,05,16,08,42,0.30
2019,05,16,08,43,4.40
2019,05,16,08,44,0.70
2019,05,16,08,45,10.00
2019,05,16,08,46,8.80
2019,05,16,08,47,15.70
2019,05,16,08,48,6.30
2019,05,16,08,49,14.00
2019,05,16,08,50,0.90
2019,05,16,08,51,8.00
2019,05,16,08,52,1.10
2019,05,16,08,53,0.00
2019,05,16,08,54,8.20
2019,05,16,08,55,9.50
2019,05,16,08,56,12.00
2019,05,16,08,57,9.90
2019,05,16,08,58,5.60
2019,05,16,08,59,0.20
2019,05,16,09,00,7.20
2019,05,16,09,01,13.90
2019,05,16,09,02,9.90
2019,05,16,09,03,9.00
2019,05,16,09,04,0.00
2019,05,16,09,05,0.10
2019,05,16,09,06,0.10
2019,05,16,09,07,9.70
2019,05,16,09,08,6.40
2019,05,16,09,09,14.00
2019,05,16,09,10,12.30
2019,05,16,09,11,18.10
2019,05,16,09,12,12.40
2019,05,16,09,13,4.70
2019,05,16,09,14,0.00
2019,05,16,09,15,3.80
2019,05,16,09,16,14.80
2019,05,16,09,17,8.20
2019,05,16,09,18,2.50
2019,05,16,09,19,1.10
2019,05,16,09,20,0.10
2019,05,16,09,21,4.10
2019,05,16,09,22,17.30
2019,05,16,09,23,11.60
2019,05,16,09,24,10.00
2019,05,16,09,25,3.30
2019,05,16,09,26,15.40
2019,05,16,09,27,22.40
2019,05,16,09,28,7.40
2019,05,16,09,29,0.10
2019,05,16,09,30,2.60
2019,05,16,09,31,0.50
2019,05,16,09,32,0.10
2019,05,16,09,33,7.10
2019,05,16,09,34,2.70
2019,05,16,09,35,13.00
2019,05,16,09,36,2.70
2019,05,16,09,37,0.20
2019,05,16,09,38,0.00
2019,05,16,09,39,6.70
2019,05,16,09,40,0.30
2019,05,16,09,41,6.40
2019,05,16,09,42,1.40
2019,05,16,09,43,0.80
2019,05,16,09,44,6.50
2019,05,16,09,45,0.20
2019,05,16,09,46,5.70
2019,05,16,09,47,4.30
2019,05,16,09,48,4.60
2019,05,16,09,49,1.70
2019,05,16,09,50,6.30
2019,05,16,09,51,5.00
2019,05,16,09,52,3.30
2019,05,16,09,53,14.20
2019,05,16,09,54,2.60
2019,05,16,09,55,0.00
2019,05,16,09,56,5.40
2019,05,16,09,57,2.10
2019,05,16,09,58,0.20
2019,05,16,09,59,0.00
2019,05,16,10,00,0.20
2019,05,16,10,01,0.00
2019,05,16,10,02,0.00
2019,05,16,10,03,0.00
2019,05,16,10,04,0.20
2019,05,16,10,05,0.00
2019,05,16,10,06,0.10
2019,05,16,10,07,0.00
2019,05,16,10,08,0.00
2019,05,16,10,09,0.00
2019,05,16,10,10,0.10
2019,05,16,10,11,6.60
2019,05,16,10,12,4.30
2019,05,16,10,13,0.00
2019,05,16,10,14,0.10
2019,05,16,10,15,0.00
2019,05,16,10,16,0.00
2019,05,16,10,17,0.00
2019,05,16,10,18,0.00
2019,05,16,10,19,0.00
2019,05,16,10,20,3.70
2019,05,16,10,21,0.00
2019,05,16,10,22,0.30
2019,05,16,10,23,2.00
2019,05,16,10,24,9.20
2019,05,16,10,25,5.00
2019,05,16,10,26,7.30
2019,05,16,10,27,5.30
2019,05,16,10,28,0.00
2019,05,16,10,29,0.10
2019,05,16,10,30,0.00
2019,05,16,10,31,0.00
2019,05,16,10,32,0.10
2019,05,16,10,33,0.10
2019,05,16,10,34,0.60
2019,05,16,10,35,9.20
2019,05,16,10,36,6.90
2019,05,16,10,37,0.10
2019,05,16,10,38,5.20
2019,05,16,10,39,6.70
2019,05,16,10,40,3.40
2019,05,16,10,41,0.10
2019,05,16,10,42,0.00
2019,05,16,10,43,0.10
2019,05,16,10,44,8.50
2019,05,16,10,45,2.10
2019,05,16,10,46,0.00
2019,05,16,10,47,0.00
2019,05,16,10,48,0.00
2019,05,16,10,49,0.00
2019,05,16,10,50,0.00
2019,05,16,10,51,0.00
2019,05,16,10,52,0.10
2019,05,16,10,53,9.00
2019,05,16,10,54,2.60
2019,05,16,10,55,0.00
2019,05,16,10,56,0.00
2019,05,16,10,57,0.00
2019,05,16,10,58,0.00
2019,05,16,10,59,0.00
2019,05,16,11,00,0.00
2019,05,16,11,01,0.10
2019,05,16,11,02,0.00
2019,05,16,11,03,0.10
2019,05,16,11,04,0.00
2019,05,16,11,05,0.10
2019,05,16,11,06,0.00
2019,05,16,11,07,0.10
2019,05,16,11,08,0.10
2019,05,16,11,09,0.10
2019,05,16,11,10,0.20
2019,05,16,11,11,0.00
2019,05,16,11,12,0.10
2019,05,16,11,13,11.10
2019,05,16,11,14,4.60
2019,05,16,11,15,0.20
2019,05,16,11,16,0.10
2019,05,16,11,17,2.90
2019,05,16,11,18,11.00
2019,05,16,11,19,0.70
2019,05,16,11,20,9.20
2019,05,16,11,21,4.60
2019,05,16,11,22,7.70
2019,05,16,11,23,3.10
2019,05,16,11,24,5.00
2019,05,16,11,25,2.50
2019,05,16,11,26,2.70
2019,05,16,11,27,9.30
2019,05,16,11,28,17.00
2019,05,16,11,29,17.00
2019,05,16,11,30,16.00
2019,05,16,11,31,13.30
2019,05,16,11,32,5.00
2019,05,16,11,33,6.50
2019,05,16,11,34,13.10
2019,05,16,11,35,0.10
2019,05,16,11,36,4.70
2019,05,16,11,37,2.80
2019,05,16,11,38,5.30
2019,05,16,11,39,5.00
2019,05,16,11,40,11.30
2019,05,16,11,41,5.40
2019,05,16,11,42,14.60
2019,05,16,11,43,12.80
2019,05,16,11,44,6.80
2019,05,16,11,45,5.90
2019,05,16,11,46,8.00
2019,05,16,11,47,15.00
2019,05,16,11,48,17.70
2019,05,16,11,49,11.70
2019,05,16,11,50,17.80
2019,05,16,11,51,22.60
2019,05,16,11,52,18.20
2019,05,16,11,53,20.10
2019,05,16,11,54,15.60
2019,05,16,11,55,19.40
2019,05,16,11,56,20.90
2019,05,16,11,57,21.20
2019,05,16,11,58,25.10
2019,05,16,11,59,25.30
2019,05,16,12,00,24.00
2019,05,16,12,01,24.90
2019,05,16,12,02,19.90
2019,05,16,12,03,18.40
2019,05,16,12,04,18.20
2019,05,16,12,05,14.70
2019,05,16,12,06,19.00
2019,05,16,12,07,18.60
2019,05,16,12,08,21.20
2019,05,16,12,09,10.50
2019,05,16,12,10,11.30
2019,05,16,12,11,10.80
2019,05,16,12,12,13.70
2019,05,16,12,13,21.30
2019,05,16,12,14,22.50
2019,05,16,12,15,18.60
2019,05,16,12,16,19.00
2019,05,16,12,17,13.90
2019,05,16,12,18,9.10
2019,05,16,12,19,16.00
2019,05,16,12,20,17.50
2019,05,16,12,21,17.20
2019,05,16,12,22,14.80
2019,05,16,12,23,5.60
2019,05,16,12,24,1.20
2019,05,16,12,25,1.10
2019,05,16,12,26,15.90
2019,05,16,12,27,13.10
2019,05,16,12,28,8.50
2019,05,16,12,29,14.80
2019,05,16,12,30,13.90
2019,05,16,12,31,12.40
2019,05,16,12,32,11.60
2019,05,16,12,33,13.90
2019,05,16,12,34,16.30
2019,05,16,12,35,14.60
2019,05,16,12,36,20.00
2019,05,16,12,37,17.00
2019,05,16,12,38,18.50
2019,05,16,12,39,22.20
2019,05,16,12,40,15.60
2019,05,16,12,41,8.00
2019,05,16,12,42,14.30
2019,05,16,12,43,21.60
2019,05,16,12,44,24.20
2019,05,16,12,45,15.60
2019,05,16,12,46,14.00
2019,05,16,12,47,13.10
2019,05,16,12,48,14.30
2019,05,16,12,49,14.60
2019,05,16,12,50,15.80
2019,05,16,12,51,6.70
2019,05,16,12,52,0.00
2019,05,16,12,53,9.20
2019,05,16,12,54,1.10
2019,05,16,12,55,11.40
2019,05,16,12,56,15.10
2019,05,16,12,57,4.10
2019,05,16,12,58,12.00
2019,05,16,12,59,9.70
2019,05,16,13,00,8.10
2019,05,16,13,01,15.60
2019,05,16,13,02,13.60
2019,05,16,13,03,19.50
2019,05,16,13,04,18.90
2019,05,16,13,05,17.10
2019,05,16,13,06,20.20
2019,05,16,13,07,7.40
2019,05,16,13,08,12.40
2019,05,16,13,09,12.60
2019,05,16,13,10,13.80
2019,05,16,13,11,13.00
2019,05,16,13,12,4.10
2019,05,16,13,13,11.70
2019,05,16,13,14,18.40
2019,05,16,13,15,15.60
2019,05,16,13,16,19.30
2019,05,16,13,17,18.40
2019,05,16,13,18,21.30
2019,05,16,13,19,23.70
2019,05,16,13,20,23.20
2019,05,16,13,21,15.50
2019,05,16,13,22,17.10
2019,05,16,13,23,9.00
2019,05,16,13,24,17.70
2019,05,16,13,25,26.00
2019,05,16,13,26,24.10
2019,05,16,13,27,18.00
2019,05,16,13,28,18.70
2019,05,16,13,29,20.20
2019,05,16,13,30,18.00
2019,05,16,13,31,20.80
2019,05,16,13,32,25.70
2019,05,16,13,33,19.90
2019,05,16,13,34,21.80
2019,05,16,13,35,18.50
2019,05,16,13,36,22.20
2019,05,16,13,37,24.10
2019,05,16,13,38,27.00
2019,05,16,13,39,22.20
2019,05,16,13,40,16.30
2019,05,16,13,41,16.60
2019,05,16,13,42,14.30
2019,05,16,13,43,14.60
2019,05,16,13,44,14.60
2019,05,16,13,45,15.60
2019,05,16,13,46,17.40
2019,05,16,13,47,20.70
2019,05,16,13,48,19.20
2019,05,16,13,49,24.20
2019,05,16,13,50,25.00
2019,05,16,13,51,27.00
2019,05,16,13,52,20.60
2019,05,16,13,53,22.30
2019,05,16,13,54,21.40
2019,05,16,13,55,15.80
2019,05,16,13,56,12.30
2019,05,16,13,57,23.70
2019,05,16,13,58,15.30
2019,05,16,13,59,16.00
2019,05,16,14,00,17.10
2019,05,16,14,01,15.40
2019,05,16,14,02,19.80
2019,05,16,14,03,13.70
2019,05,16,14,04,5.90
2019,05,16,14,05,16.90
2019,05,16,14,06,16.70
2019,05,16,14,07,11.50
2019,05,16,14,08,12.30
2019,05,16,14,09,4.90
2019,05,16,14,10,7.40
2019,05,16,14,11,9.30
2019,05,16,14,12,26.90
2019,05,16,14,13,10.90
2019,05,16,14,14,11.70
2019,05,16,14,15,14.80
2019,05,16,14,16,11.00
2019,05,16,14,17,11.20
2019,05,16,14,18,13.20
2019,05,16,14,19,19.70
2019,05,16,14,20,17.60
2019,05,16,14,21,13.70
2019,05,16,14,22,20.80
2019,05,16,14,23,19.30
2019,05,16,14,24,13.70
2019,05,16,14,25,20.00
2019,05,16,14,26,5.70
2019,05,16,14,27,4.20
2019,05,16,14,28,6.40
2019,05,16,14,29,1.50
2019,05,16,14,30,0.30
2019,05,16,14,31,4.90
2019,05,16,14,32,8.60
2019,05,16,14,33,17.60
2019,05,16,14,34,3.10
2019,05,16,14,35,5.70
2019,05,16,14,36,13.00
2019,05,16,14,37,13.30
2019,05,16,14,38,10.30
2019,05,16,14,39,13.90
2019,05,16,14,40,9.80
2019,05,16,14,41,15.80
2019,05,16,14,42,12.50
2019,05,16,14,43,10.30
2019,05,16,14,44,16.60
2019,05,16,14,45,17.80
2019,05,16,14,46,8.10
2019,05,16,14,47,13.00
2019,05,16,14,48,9.30
2019,05,16,14,49,15.80
2019,05,16,14,50,2.90
2019,05,16,14,51,0.00
2019,05,16,14,52,10.30
2019,05,16,14,53,18.40
2019,05,16,14,54,9.70
2019,05,16,14,55,13.50
2019,05,16,14,56,23.80
2019,05,16,14,57,18.90
2019,05,16,14,58,19.50
2019,05,16,14,59,15.40
2019,05,16,15,00,18.70
2019,05,16,15,01,22.40
2019,05,16,15,02,12.70
2019,05,16,15,03,6.90
2019,05,16,15,04,11.50
2019,05,16,15,05,15.40
2019,05,16,15,06,14.10
2019,05,16,15,07,14.10
2019,05,16,15,08,12.90
2019,05,16,15,09,21.10
2019,05,16,15,10,13.50
2019,05,16,15,11,11.80
2019,05,16,15,12,11.40
2019,05,16,15,13,9.70
2019,05,16,15,14,5.00
2019,05,16,15,15,12.90
2019,05,16,15,16,14.20
2019,05,16,15,17,11.70
2019,05,16,15,18,12.50
2019,05,16,15,19,6.70
2019,05,16,15,20,17.80
2019,05,16,15,21,11.60
2019,05,16,15,22,5.30
2019,05,16,15,23,1.40
2019,05,16,15,24,13.30
2019,05,16,15,25,11.30
2019,05,16,15,26,23.60
2019,05,16,15,27,23.70
2019,05,16,15,28,8.30
2019,05,16,15,29,6.00
2019,05,16,15,30,3.70
2019,05,16,15,31,1.70
2019,05,16,15,32,17.40
2019,05,16,15,33,9.30
2019,05,16,15,34,14.90
2019,05,16,15,35,5.10
2019,05,16,15,36,3.70
2019,05,16,15,37,13.80
2019,05,16,15,38,7.30
2019,05,16,15,39,15.50
2019,05,16,15,40,13.30
2019,05,16,15,41,8.20
2019,05,16,15,42,16.50
2019,05,16,15,43,2.80
2019,05,16,15,44,6.40
2019,05,16,15,45,18.80
2019,05,16,15,46,25.20
2019,05,16,15,47,21.80
2019,05,16,15,48,22.50
2019,05,16,15,49,17.70
2019,05,16,15,50,12.30
2019,05,16,15,51,12.20
2019,05,16,15,52,24.40
2019,05,16,15,53,23.30
2019,05,16,15,54,17.70
2019,05,16,15,55,11.40
2019,05,16,15,56,16.20
2019,05,16,15,57,12.60
2019,05,16,15,58,14.10
2019,05,16,15,59,6.00
2019,05,16,16,00,16.10
2019,05,16,16,01,17.80
2019,05,16,16,02,18.10
2019,05,16,16,03,17.40
2019,05,16,16,04,20.30
2019,05,16,16,05,7.60
2019,05,16,16,06,15.40
2019,05,16,16,07,18.30
2019,05,16,16,08,17.50
2019,05,16,16,09,12.70
2019,05,16,16,10,20.90
2019,05,16,16,11,23.10
2019,05,16,16,12,20.10
2019,05,16,16,13,17.30
2019,05,16,16,14,16.50
2019,05,16,16,15,16.80
2019,05,16,16,16,21.70
2019,05,16,16,17,15.50
2019,05,16,16,18,12.60
2019,05,16,16,19,16.50
2019,05,16,16,20,10.40
2019,05,16,16,21,7.30
2019,05,16,16,22,5.90
2019,05,16,16,23,10.70
2019,05,16,16,24,7.80
2019,05,16,16,25,15.40
2019,05,16,16,26,13.40
2019,05,16,16,27,0.80
2019,05,16,16,28,0.20
2019,05,16,16,29,0.00
2019,05,16,16,30,0.20
2019,05,16,16,31,0.00
2019,05,16,16,32,0.20
2019,05,16,16,33,4.60
2019,05,16,16,34,8.00
2019,05,16,16,35,21.70
2019,05,16,16,36,16.40
2019,05,16,16,37,0.40
2019,05,16,16,38,1.50
2019,05,16,16,39,12.20
2019,05,16,16,40,10.20
2019,05,16,16,41,8.70
2019,05,16,16,42,16.50
2019,05,16,16,43,10.50
2019,05,16,16,44,11.60
2019,05,16,16,45,8.30
2019,05,16,16,46,1.10
2019,05,16,16,47,13.90
2019,05,16,16,48,15.30
2019,05,16,16,49,15.80
2019,05,16,16,50,19.40
2019,05,16,16,51,17.10
2019,05,16,16,52,19.20
2019,05,16,16,53,18.10
2019,05,16,16,54,18.40
2019,05,16,16,55,15.10
2019,05,16,16,56,11.00
2019,05,16,16,57,16.50
2019,05,16,16,58,15.90
2019,05,16,16,59,8.00
2019,05,16,17,00,7.20
2019,05,16,17,01,9.10
2019,05,16,17,02,7.30
2019,05,16,17,03,12.10
2019,05,16,17,04,13.30
2019,05,16,17,05,8.90
2019,05,16,17,06,15.10
2019,05,16,17,07,9.60
2019,05,16,17,08,8.10
2019,05,16,17,09,10.30
2019,05,16,17,10,2.50
2019,05,16,17,11,1.00
2019,05,16,17,12,4.80
2019,05,16,17,13,9.10
2019,05,16,17,14,3.70
2019,05,16,17,15,3.50
2019,05,16,17,16,6.00
2019,05,16,17,17,2.70
2019,05,16,17,18,4.10
2019,05,16,17,19,4.80
2019,05,16,17,20,14.90
2019,05,16,17,21,5.00
2019,05,16,17,22,6.70
2019,05,16,17,23,6.00
2019,05,16,17,24,16.20
2019,05,16,17,25,12.60
2019,05,16,17,26,5.50
2019,05,16,17,27,5.00
2019,05,16,17,28,10.70
2019,05,16,17,29,9.40
2019,05,16,17,30,10.60
2019,05,16,17,31,19.10
2019,05,16,17,32,6.40
2019,05,16,17,33,8.00
2019,05,16,17,34,9.60
2019,05,16,17,35,13.60
2019,05,16,17,36,16.30
2019,05,16,17,37,9.90
2019,05,16,17,38,8.80
2019,05,16,17,39,11.00
2019,05,16,17,40,5.80
2019,05,16,17,41,7.00
2019,05,16,17,42,15.70
2019,05,16,17,43,15.90
2019,05,16,17,44,7.30
2019,05,16,17,45,4.80
2019,05,16,17,46,8.40
2019,05,16,17,47,5.50
2019,05,16,17,48,9.20
2019,05,16,17,49,7.60
2019,05,16,17,50,7.10
2019,05,16,17,51,4.20
2019,05,16,17,52,0.00
2019,05,16,17,53,5.20